Total_Precipitation_Accumulation
1.46 1.73 2.25 3.00 3.93 4.66 4.77 4.25 3.73 3.33 2.84 2.40 1.82 1.42 1.18 1.04 0.92 0.78 0.66 0.58 0.53 0.53 0.55 0.49 0.48 0.47 0.48 0.48 0.51 0.58 0.63 0.63 0.71 0.76 0.73 0.68 0.63 0.67 0.67 0.69 0.77 0.73 0.73
1.63 2.15 3.06 3.64 3.75 3.71 3.27 2.80 2.53 2.29 1.89 1.49 1.18 0.99 0.84 0.68 0.57 0.51 0.49 0.44 0.38 0.37 0.35 0.35 0.36 0.37 0.36 0.37 0.40 0.44 0.45 0.45 0.53 0.61 0.66 0.58 0.53 0.50 0.44 0.52 0.50 0.53 0.72
1.76 2.48 2.99 3.02 2.58 2.17 1.94 1.80 1.72 1.40 1.22 1.08 0.93 0.80 0.66 0.51 0.44 0.41 0.39 0.32 0.27 0.26 0.26 0.26 0.27 0.32 0.32 0.34 0.38 0.38 0.38 0.37 0.37 0.46 0.60 0.57 0.50 0.42 0.38 0.40 0.44 0.51 0.61
1.22 1.60 1.80 1.63 1.56 1.57 1.55 1.60 1.50 1.19 1.02 0.88 0.72 0.57 0.47 0.41 0.36 0.33 0.32 0.28 0.23 0.21 0.19 0.18 0.19 0.21 0.26 0.33 0.32 0.37 0.37 0.35 0.29 0.31 0.40 0.45 0.49 0.49 0.44 0.40 0.41 0.50 0.56
0.68 0.74 0.79 0.85 0.93 1.00 1.16 1.32 1.36 1.23 1.00 0.86 0.75 0.65 0.50 0.45 0.39 0.36 0.34 0.32 0.26 0.22 0.20 0.20 0.19 0.18 0.19 0.23 0.25 0.33 0.37 0.38 0.32 0.30 0.33 0.37 0.39 0.42 0.43 0.34 0.33 0.39 0.37
0.55 0.55 0.52 0.58 0.68 0.77 0.86 1.01 1.19 1.24 1.10 0.94 0.82 0.72 0.61 0.54 0.46 0.40 0.36 0.31 0.24 0.22 0.20 0.21 0.21 0.21 0.20 0.18 0.17 0.21 0.29 0.36 0.38 0.32 0.30 0.38 0.39 0.39 0.42 0.31 0.25 0.28 0.25
0.56 0.55 0.48 0.42 0.43 0.51 0.60 0.63 0.72 0.85 0.86 0.77 0.72 0.70 0.67 0.54 0.44 0.36 0.29 0.27 0.22 0.20 0.19 0.20 0.20 0.21 0.22 0.21 0.19 0.17 0.21 0.27 0.33 0.33 0.33 0.34 0.34 0.40 0.41 0.33 0.27 0.31 0.31
0.34 0.35 0.32 0.26 0.21 0.25 0.36 0.40 0.47 0.54 0.60 0.57 0.53 0.51 0.51 0.41 0.35 0.38 0.28 0.25 0.26 0.26 0.24 0.19 0.18 0.19 0.20 0.20 0.20 0.18 0.19 0.23 0.27 0.29 0.39 0.38 0.29 0.36 0.39 0.39 0.46 0.45 0.47
0.12 0.16 0.19 0.17 0.15 0.17 0.22 0.30 0.40 0.45 0.49 0.50 0.45 0.38 0.38 0.36 0.35 0.34 0.28 0.22 0.27 0.28 0.25 0.20 0.17 0.17 0.18 0.19 0.20 0.20 0.22 0.25 0.28 0.33 0.42 0.44 0.40 0.41 0.41 0.46 0.57 0.64 0.56
0.09 0.10 0.11 0.11 0.10 0.12 0.17 0.25 0.34 0.40 0.43 0.45 0.41 0.33 0.37 0.36 0.35 0.31 0.30 0.28 0.26 0.26 0.23 0.20 0.16 0.16 0.17 0.18 0.20 0.21 0.25 0.28 0.34 0.41 0.46 0.52 0.52 0.52 0.52 0.53 0.61 0.75 0.73
0.05 0.05 0.05 0.07 0.08 0.08 0.11 0.16 0.22 0.27 0.31 0.34 0.35 0.32 0.32 0.31 0.33 0.33 0.30 0.31 0.29 0.28 0.23 0.20 0.19 0.17 0.17 0.19 0.23 0.23 0.24 0.27 0.33 0.39 0.45 0.50 0.57 0.63 0.65 0.70 0.71 0.75 0.85
0.02 0.03 0.04 0.06 0.07 0.08 0.09 0.12 0.16 0.17 0.23 0.26 0.25 0.26 0.28 0.27 0.28 0.27 0.26 0.27 0.27 0.25 0.23 0.21 0.19 0.16 0.16 0.21 0.25 0.25 0.25 0.28 0.32 0.39 0.50 0.53 0.54 0.60 0.67 0.79 0.81 0.83 0.96
0.02 0.03 0.04 0.09 0.12 0.10 0.10 0.11 0.16 0.17 0.19 0.20 0.18 0.21 0.27 0.27 0.25 0.22 0.20 0.22 0.24 0.25 0.24 0.24 0.23 0.20 0.19 0.20 0.22 0.27 0.30 0.35 0.38 0.42 0.50 0.56 0.64 0.65 0.70 0.79 0.82 0.87 1.03
0.04 0.04 0.05 0.08 0.09 0.08 0.10 0.14 0.18 0.24 0.26 0.26 0.25 0.26 0.30 0.30 0.27 0.20 0.18 0.19 0.23 0.24 0.28 0.32 0.33 0.30 0.26 0.25 0.25 0.27 0.30 0.36 0.41 0.49 0.50 0.54 0.64 0.72 0.77 0.84 0.95 1.02 1.10
0.06 0.06 0.08 0.12 0.16 0.16 0.19 0.23 0.27 0.32 0.35 0.37 0.40 0.43 0.44 0.40 0.33 0.29 0.28 0.30 0.33 0.36 0.46 0.48 0.46 0.43 0.38 0.30 0.29 0.32 0.31 0.37 0.38 0.43 0.49 0.49 0.53 0.61 0.73 0.79 0.91 1.07 1.22
0.10 0.10 0.11 0.14 0.16 0.17 0.20 0.25 0.31 0.34 0.35 0.39 0.42 0.45 0.50 0.48 0.46 0.44 0.45 0.49 0.53 0.61 0.65 0.61 0.59 0.59 0.45 0.38 0.34 0.31 0.33 0.35 0.39 0.43 0.49 0.49 0.46 0.47 0.52 0.61 0.74 0.88 1.06
0.09 0.09 0.12 0.14 0.15 0.16 0.18 0.22 0.25 0.31 0.38 0.48 0.56 0.59 0.60 0.59 0.59 0.62 0.63 0.63 0.65 0.69 0.71 0.69 0.68 0.65 0.61 0.48 0.35 0.29 0.30 0.34 0.39 0.44 0.47 0.41 0.35 0.41 0.44 0.49 0.54 0.62 0.73
0.13 0.15 0.18 0.17 0.18 0.19 0.20 0.25 0.31 0.36 0.42 0.49 0.57 0.63 0.70 0.72 0.75 0.82 0.83 0.83 0.83 0.81 0.79 0.75 0.75 0.75 0.71 0.59 0.45 0.39 0.34 0.36 0.38 0.42 0.44 0.43 0.39 0.41 0.47 0.52 0.51 0.50 0.52
0.15 0.15 0.19 0.20 0.21 0.22 0.26 0.30 0.38 0.49 0.55 0.59 0.66 0.70 0.74 0.80 0.84 0.86 0.87 0.89 0.92 0.87 0.87 0.88 0.88 0.87 0.83 0.69 0.50 0.42 0.40 0.44 0.44 0.46 0.48 0.52 0.46 0.42 0.38 0.44 0.45 0.45 0.44
0.15 0.13 0.14 0.17 0.23 0.29 0.32 0.38 0.45 0.55 0.65 0.70 0.70 0.68 0.75 0.81 0.79 0.78 0.81 0.80 0.82 0.79 0.81 0.83 0.89 0.92 0.90 0.79 0.56 0.48 0.45 0.49 0.52 0.57 0.57 0.53 0.44 0.40 0.32 0.37 0.42 0.40 0.39
0.14 0.14 0.14 0.16 0.21 0.25 0.29 0.38 0.47 0.57 0.61 0.61 0.58 0.58 0.65 0.72 0.72 0.75 0.76 0.71 0.68 0.69 0.72 0.77 0.80 0.86 0.86 0.73 0.45 0.38 0.42 0.50 0.56 0.57 0.57 0.58 0.49 0.38 0.30 0.31 0.36 0.35 0.38
0.15 0.13 0.12 0.14 0.18 0.23 0.26 0.34 0.40 0.43 0.46 0.44 0.42 0.42 0.46 0.47 0.48 0.57 0.61 0.63 0.67 0.67 0.69 0.77 0.82 0.88 0.90 0.78 0.54 0.33 0.33 0.45 0.55 0.59 0.62 0.64 0.54 0.43 0.36 0.29 0.27 0.27 0.30
0.18 0.18 0.17 0.17 0.19 0.22 0.28 0.33 0.32 0.32 0.34 0.37 0.37 0.37 0.36 0.40 0.45 0.50 0.49 0.50 0.54 0.54 0.58 0.76 0.89 0.94 0.97 0.87 0.61 0.41 0.32 0.37 0.49 0.58 0.69 0.70 0.57 0.51 0.45 0.37 0.29 0.28 0.28
0.18 0.21 0.22 0.23 0.24 0.26 0.28 0.28 0.28 0.31 0.36 0.39 0.39 0.38 0.37 0.37 0.38 0.45 0.45 0.43 0.43 0.43 0.50 0.70 0.85 0.93 0.94 0.88 0.71 0.54 0.43 0.41 0.47 0.54 0.65 0.72 0.72 0.68 0.62 0.52 0.40 0.31 0.32
0.13 0.16 0.23 0.28 0.28 0.26 0.25 0.25 0.28 0.34 0.38 0.37 0.36 0.35 0.36 0.36 0.35 0.41 0.43 0.37 0.38 0.35 0.38 0.55 0.78 0.85 0.78 0.65 0.52 0.46 0.48 0.47 0.53 0.59 0.76 0.90 0.95 0.97 0.91 0.78 0.65 0.54 0.50
0.15 0.19 0.24 0.28 0.28 0.25 0.24 0.23 0.26 0.34 0.41 0.40 0.36 0.34 0.34 0.35 0.36 0.39 0.39 0.32 0.25 0.22 0.20 0.26 0.41 0.52 0.47 0.38 0.35 0.33 0.34 0.32 0.34 0.46 0.71 0.99 1.09 1.13 1.13 1.03 0.87 0.75 0.69